TimeMST,TemperatureF,Dew PointF,Humidity,Sea Level PressureIn,VisibilityMPH,Wind Direction,Wind SpeedMPH,Gust SpeedMPH,PrecipitationIn,Events,Conditions,WindDirDegrees,DateUTC
12:15 AM,24.8,21.2,86,30.28,8.0,Calm,Calm,-,N/A,,Mostly Cloudy,0,2013-02-14 07:15:00
12:35 AM,24.8,21.2,86,30.28,8.0,Calm,Calm,-,N/A,,Mostly Cloudy,0,2013-02-14 07:35:00
12:55 AM,23.0,19.4,86,30.28,8.0,SW,3.5,-,N/A,,Mostly Cloudy,230,2013-02-14 07:55:00
1:15 AM,23.0,21.2,93,30.28,7.0,Calm,Calm,-,N/A,,Mostly Cloudy,0,2013-02-14 08:15:00
1:35 AM,23.0,19.4,86,30.28,6.0,Calm,Calm,-,N/A,,Clear,0,2013-02-14 08:35:00
1:55 AM,24.8,21.2,86,30.28,7.0,Calm,Calm,-,N/A,,Clear,0,2013-02-14 08:55:00
2:15 AM,24.8,21.2,86,30.29,7.0,Calm,Calm,-,N/A,,Scattered Clouds,0,2013-02-14 09:15:00
2:35 AM,24.8,23.0,93,30.28,2.5,NE,3.5,-,N/A,,Overcast,50,2013-02-14 09:35:00
2:55 AM,26.6,26.6,100,30.28,3.0,Calm,Calm,-,N/A,,Overcast,0,2013-02-14 09:55:00
3:15 AM,26.6,26.6,100,30.27,4.0,South,4.6,-,N/A,,Overcast,180,2013-02-14 10:15:00
3:35 AM,24.8,24.8,100,30.27,4.0,Calm,Calm,-,N/A,,Overcast,0,2013-02-14 10:35:00
3:55 AM,24.8,24.8,100,30.27,4.0,Calm,Calm,-,N/A,,Overcast,0,2013-02-14 10:55:00
4:15 AM,26.6,24.8,93,30.27,5.0,Calm,Calm,-,N/A,,Overcast,0,2013-02-14 11:15:00
4:35 AM,26.6,26.6,100,30.27,4.0,Calm,Calm,-,N/A,,Overcast,0,2013-02-14 11:35:00
4:55 AM,26.6,26.6,100,30.28,4.0,Calm,Calm,-,N/A,,Overcast,0,2013-02-14 11:55:00
5:35 AM,24.8,23.0,93,30.28,4.0,Calm,Calm,-,N/A,,Scattered Clouds,0,2013-02-14 12:35:00
5:55 AM,26.6,23.0,86,30.30,5.0,Calm,Calm,-,N/A,,Scattered Clouds,0,2013-02-14 12:55:00
6:15 AM,26.6,24.8,93,30.31,4.0,Calm,Calm,-,N/A,,Mostly Cloudy,0,2013-02-14 13:15:00
6:35 AM,24.8,23.0,93,30.31,4.0,West,4.6,-,N/A,,Scattered Clouds,280,2013-02-14 13:35:00
6:50 AM,26.6,23.0,86,30.32,5.0,Calm,Calm,-,N/A,Snow,Light Snow,0,2013-02-14 13:50:00
7:50 AM,26.6,24.8,93,30.33,4.0,Calm,Calm,-,N/A,Snow,Light Snow,0,2013-02-14 14:50:00
8:50 AM,28.4,24.8,86,30.35,4.0,Calm,Calm,-,N/A,Snow,Light Snow,0,2013-02-14 15:50:00
9:50 AM,28.4,26.6,93,30.39,6.0,Calm,Calm,-,N/A,,Overcast,0,2013-02-14 16:50:00
11:50 AM,33.8,28.4,81,30.39,6.0,Calm,Calm,-,N/A,,Mostly Cloudy,0,2013-02-14 18:50:00
12:59 PM,37.4,28.4,70,30.39,6.0,Calm,Calm,-,N/A,,Haze,0,2013-02-14 19:59:00
1:47 PM,37.4,26.6,65,30.38,6.0,Variable,4.6,-,N/A,,Haze,0,2013-02-14 20:47:00
2:51 PM,35.6,24.8,65,30.38,6.0,Variable,4.6,-,N/A,,Haze,0,2013-02-14 21:51:00
3:49 PM,37.4,26.6,65,30.38,10.0,Variable,4.6,-,N/A,,Scattered Clouds,0,2013-02-14 22:49:00
4:51 PM,35.6,26.6,70,30.39,10.0,Variable,4.6,-,N/A,,Scattered Clouds,0,2013-02-14 23:51:00
5:50 PM,33.8,23.0,65,30.38,15.0,Calm,Calm,-,N/A,,Scattered Clouds,0,2013-02-15 00:50:00
6:52 PM,33.8,21.2,60,30.39,15.0,Calm,Calm,-,N/A,,Scattered Clouds,0,2013-02-15 01:52:00
7:47 PM,28.4,19.4,69,30.41,15.0,NW,10.4,-,N/A,,Scattered Clouds,320,2013-02-15 02:47:00
8:50 PM,28.4,21.2,74,30.41,15.0,Calm,Calm,-,N/A,,Scattered Clouds,0,2013-02-15 03:50:00
8:55 PM,28.4,19.4,69,30.41,10.0,NW,4.6,-,N/A,,Partly Cloudy,310,2013-02-15 03:55:00
9:15 PM,28.4,19.4,69,30.41,10.0,WNW,6.9,-,N/A,,Clear,300,2013-02-15 04:15:00
9:35 PM,26.6,19.4,74,30.41,10.0,NNW,5.8,-,N/A,,Clear,330,2013-02-15 04:35:00
9:55 PM,26.6,21.2,80,30.42,10.0,NE,5.8,-,N/A,,Clear,40,2013-02-15 04:55:00
10:15 PM,26.6,19.4,74,30.42,10.0,Calm,Calm,-,N/A,,Clear,0,2013-02-15 05:15:00
10:35 PM,26.6,19.4,74,30.43,10.0,Calm,Calm,-,N/A,,Clear,0,2013-02-15 05:35:00
10:55 PM,26.6,19.4,74,30.43,10.0,NNW,3.5,-,N/A,,Clear,340,2013-02-15 05:55:00
11:15 PM,26.6,19.4,74,30.44,10.0,NW,4.6,-,N/A,,Clear,310,2013-02-15 06:15:00
11:35 PM,24.8,19.4,80,30.44,10.0,North,3.5,-,N/A,,Clear,350,2013-02-15 06:35:00